Terminal Aerodrome Forecast
Issued by NWS

Home | Current Version | Previous Version | Text Only | Print | Product List | Glossary On
Versions: 1 2 3 4 5 6 7 8 9 10 11 12 13
000
FTUS43 KGRR 222129 AAA
TAFLAN
TAF AMD
KLAN 222129Z 2221/2318 30008G16KT P6SM SKC
     FM230100 00000KT P6SM SKC
     FM231500 20008KT P6SM SKC=

USA.gov is the U.S. government's official web portal to all federal, state and local government web resources and services.